This is the latest recevied weather packets stored in our database for station/object ZL3GL-4. If no packets are shown the sender has not sent any weather packets the latest 1 day(s).
| Time | Temp. | Humidity | Pressure | Rain* | Wind** | Luminosity | Snow |
|---|---|---|---|---|---|---|---|
| 1778114713 | 16.11° C | 85% | 1006.1 hPa | 0 mm | 1.34 m/s, 224° | - | - |
| 1778107128 | 15.56° C | 83% | 1008.1 hPa | 0 mm | 0.45 m/s, 75° | - | - |
| 1778105440 | 15° C | 84% | 1008.5 hPa | 0 mm | 0.89 m/s, 131° | - | - |
| 1778102068 | 11.11° C | 100% | 1009.3 hPa | 0 mm | 0 m/s | - | - |
| 1778095321 | 10.56° C | 99% | 1010.5 hPa | 0 mm | 0.45 m/s, 267° | - | - |
| 1778094476 | 10.56° C | 98% | 1010.8 hPa | 0 mm | 0.89 m/s, 295° | - | - |
| 1778090257 | 10° C | 100% | 1011.7 hPa | 0 mm | 0.89 m/s, 267° | - | - |
| 1778086884 | 9.44° C | 100% | 1012.8 hPa | 0 mm | 0.45 m/s, 136° | - | - |
| 1778083513 | 10° C | 100% | 1013.9 hPa | 0 mm | 0 m/s | - | - |
| 1778079293 | 10° C | 100% | 1015.5 hPa | 0 mm | 0 m/s | - | - |
| 1778076763 | 10° C | 100% | 1016.2 hPa | 0 mm | 0 m/s | - | - |
| 1778075918 | 10° C | 100% | 1016.4 hPa | 0 mm | 1.34 m/s, 273° | - | - |
| 1778074232 | 10° C | 100% | 1016.8 hPa | 0 mm | 0.45 m/s, 232° | - | - |
| 1778073388 | 10° C | 100% | 1016.9 hPa | 0 mm | 1.34 m/s, 297° | - | - |
| 1778069169 | 9.44° C | 100% | 1018.2 hPa | 0 mm | 1.34 m/s, 278° | - | - |
| 1778068326 | 10° C | 99% | 1018.4 hPa | 0 mm | 0 m/s | - | - |
| 1778065797 | 10° C | 100% | 1018.9 hPa | 0 mm | 0.45 m/s, 274° | - | - |
| 1778064950 | 10° C | 100% | 1019.1 hPa | 0 mm | 0 m/s | - | - |
| 1778063263 | 10.56° C | 99% | 1019.4 hPa | 0 mm | 0.45 m/s, 20° | - | - |
| 1778059887 | 10° C | 100% | 1019.7 hPa | 0 mm | 0 m/s | - | - |
| 1778059042 | 10° C | 100% | 1019.5 hPa | 0 mm | 0.89 m/s, 274° | - | - |
| 1778057353 | 10.56° C | 100% | 1019.8 hPa | 0 mm | 1.34 m/s, 347° | - | - |
| 1778056509 | 10.56° C | 99% | 1019.9 hPa | 0 mm | 1.34 m/s, 23° | - | - |
| 1778055668 | 10.56° C | 98% | 1019.9 hPa | 0 mm | 0.45 m/s, 264° | - | - |
| 1778054823 | 10.56° C | 99% | 1019.9 hPa | 0 mm | 0.45 m/s, 277° | - | - |
* Rain latest hour (hover to see other rain measurements)
** Current wind speed in m/s (hover to see current wind gust speed)